Satellite: SRMSAT Catalog number: 37841 Epoch time: 12193.28422884 Element set: 0186 Inclination: 019.9709 deg RA of node: 217.6057 deg Eccentricity: 0.0011775 Arg of perigee: 095.1371 deg Mean anomaly: 265.0402 deg Mean motion: 14.10148422 rev/day Decay rate: 2.64e-06 rev/day^2 Epoch rev: 03860 Checksum: 286
Satellite: RAX-2 Catalog number: 37853 Epoch time: 12194.73831935 Element set: 228 Inclination: 101.7113 deg RA of node: 246.5598 deg Eccentricity: 0.0246353 Arg of perigee: 278.0641 deg Mean anomaly: 079.2673 deg Mean motion: 14.80186544 rev/day Decay rate: 2.815e-05 rev/day^2 Epoch rev: 3817 Checksum: 319
Satellite: AUBIESAT Catalog number: 37854 Epoch time: 12193.87541563 Element set: 0237 Inclination: 101.7127 deg RA of node: 245.5848 deg Eccentricity: 0.0246779 Arg of perigee: 279.6939 deg Mean anomaly: 077.6466 deg Mean motion: 14.80575355 rev/day Decay rate: 2.763e-05 rev/day^2 Epoch rev: 03804 Checksum: 349
Satellite: HRBE Catalog number: 37855 Epoch time: 12193.82395602 Element set: 0238 Inclination: 101.7114 deg RA of node: 245.4585 deg Eccentricity: 0.0247593 Arg of perigee: 280.0760 deg Mean anomaly: 077.2579 deg Mean motion: 14.80422342 rev/day Decay rate: 2.414e-05 rev/day^2 Epoch rev: 03803 Checksum: 293
Satellite: RS-39 Catalog number: 38051 Epoch time: 12194.96502477 Element set: 507 Inclination: 051.6391 deg RA of node: 036.9706 deg Eccentricity: 0.0014831 Arg of perigee: 126.6867 deg Mean anomaly: 034.8031 deg Mean motion: 15.24680811 rev/day Decay rate: 7.962e-05 rev/day^2 Epoch rev: 2590 Checksum: 311
Satellite: E-STAR Catalog number: 38079 Epoch time: 12194.60413678 Element set: 343 Inclination: 069.4946 deg RA of node: 257.5365 deg Eccentricity: 0.0738913 Arg of perigee: 215.9259 deg Mean anomaly: 138.9763 deg Mean motion: 14.16375344 rev/day Decay rate: 4.6460e-04 rev/day^2 Epoch rev: 2118 Checksum: 339
Satellite: GOLIAT Catalog number: 38085 Epoch time: 12194.61344988 Element set: 314 Inclination: 069.4922 deg RA of node: 257.8561 deg Eccentricity: 0.0743845 Arg of perigee: 216.2678 deg Mean anomaly: 138.5572 deg Mean motion: 14.15373151 rev/day Decay rate: 4.6936e-04 rev/day^2 Epoch rev: 2117 Checksum: 329
Satellite: HORYU-2 Catalog number: 38340 Epoch time: 12193.87553771 Element set: 49 Inclination: 098.1757 deg RA of node: 133.6607 deg Eccentricity: 0.0011806 Arg of perigee: 250.7708 deg Mean anomaly: 109.3020 deg Mean motion: 14.70029689 rev/day Decay rate: 1.291e-05 rev/day^2 Epoch rev: 810 Checksum: 292
/EX
participants (1)
-
Ray Hoad